�������C�����ː����j�^�v���󋵏��
Date,Time,Cs137(Bq/L),Cs134(Bq/L),�S��(Bq/L)
2016/11/09,00:00,0.64,0.074,ND
2016/11/09,00:10,0.64,0.070,ND
2016/11/09,00:20,0.66,0.080,ND
2016/11/09,00:30,0.69,0.075,ND
2016/11/09,00:40,0.72,0.074,ND
2016/11/09,00:50,0.70,0.093,ND
2016/11/09,01:00,0.71,0.095,ND
2016/11/09,01:10,0.70,0.10,ND
2016/11/09,01:20,0.71,0.10,ND
2016/11/09,01:30,0.71,0.092,ND
2016/11/09,01:40,0.68,0.098,ND
2016/11/09,01:50,0.70,0.086,ND
2016/11/09,02:00,0.71,0.074,ND
2016/11/09,02:10,0.74,0.093,9.0
2016/11/09,02:20,0.76,0.081,9.0
2016/11/09,02:30,0.67,0.098,9.0
2016/11/09,02:40,0.77,0.087,8.8
2016/11/09,02:50,0.77,0.092,ND
2016/11/09,03:00,0.77,0.096,ND
2016/11/09,03:10,0.70,0.10,ND
2016/11/09,03:20,0.69,0.11,ND
2016/11/09,03:30,0.79,0.092,ND
2016/11/09,03:40,0.77,0.098,ND
2016/11/09,03:50,0.78,0.099,ND
2016/11/09,04:00,0.80,0.094,ND
2016/11/09,04:10,0.79,0.089,ND
2016/11/09,04:20,0.78,0.086,ND
2016/11/09,04:30,0.74,0.098,ND
2016/11/09,04:40,0.79,0.097,ND
2016/11/09,04:50,0.70,0.094,ND
2016/11/09,05:00,0.69,0.094,ND
2016/11/09,05:10,0.75,0.094,ND
2016/11/09,05:20,0.80,0.10,ND
2016/11/09,05:30,0.81,0.078,ND
2016/11/09,05:40,0.81,0.084,ND
2016/11/09,05:50,0.80,0.090,ND
2016/11/09,06:00,0.72,0.11,ND
2016/11/09,06:10,0.74,0.095,9.5
2016/11/09,06:20,0.79,0.093,ND
2016/11/09,06:30,0.79,0.095,9.9
2016/11/09,06:40,0.79,0.091,ND
2016/11/09,06:50,0.80,0.085,ND
2016/11/09,07:00,0.80,0.071,ND
2016/11/09,07:10,0.79,0.081,10
2016/11/09,07:20,0.78,0.088,8.9
2016/11/09,07:30,0.70,0.099,ND
2016/11/09,07:40,0.80,0.091,ND
2016/11/09,07:50,0.81,0.088,10
2016/11/09,08:00,0.82,0.11,ND
2016/11/09,08:10,0.81,0.085,ND
2016/11/09,08:20,0.83,0.080,ND
2016/11/09,08:30,0.84,0.077,ND
2016/11/09,08:40,0.82,0.087,ND
2016/11/09,08:50,0.80,0.093,ND
2016/11/09,09:00,0.78,0.088,ND
2016/11/09,09:10,0.77,0.093,ND
2016/11/09,09:20,0.76,0.092,ND
2016/11/09,09:30,0.75,0.10,ND
2016/11/09,09:40,0.78,0.11,ND
2016/11/09,09:50,0.77,0.11,ND
2016/11/09,10:00,0.77,0.10,ND
2016/11/09,10:10,0.74,0.11,10
2016/11/09,10:20,0.73,0.11,9.3
2016/11/09,10:30,0.70,0.099,10
2016/11/09,10:40,0.68,0.091,9.5
2016/11/09,10:50,0.68,0.089,9.3
2016/11/09,11:00,0.71,0.091,ND
2016/11/09,11:10,0.73,0.087,ND
2016/11/09,11:20,0.71,0.092,ND
2016/11/09,11:30,0.72,0.082,ND
2016/11/09,11:40,0.74,0.092,ND
2016/11/09,11:50,0.76,0.097,ND
2016/11/09,12:00,0.76,0.095,9.2
2016/11/09,12:10,0.77,0.094,ND
2016/11/09,12:20,0.79,0.095,8.9
2016/11/09,12:30,0.82,0.090,ND
2016/11/09,12:40,0.84,0.080,ND
2016/11/09,12:50,0.83,0.077,ND
2016/11/09,13:00,0.83,0.076,ND
2016/11/09,13:10,0.82,0.082,ND
2016/11/09,13:20,0.80,0.075,ND
2016/11/09,13:30,0.83,0.086,ND
2016/11/09,13:40,0.81,0.089,ND
2016/11/09,13:50,0.82,0.088,ND
2016/11/09,14:00,0.80,0.093,ND
2016/11/09,14:10,0.80,0.094,ND
2016/11/09,14:20,0.79,0.12,ND
2016/11/09,14:30,0.78,0.11,ND
2016/11/09,14:40,0.80,0.12,ND
2016/11/09,14:50,0.79,0.13,ND
2016/11/09,15:00,0.82,0.12,ND
2016/11/09,15:10,0.83,0.12,ND
2016/11/09,15:20,0.85,0.12,ND
2016/11/09,15:30,0.78,0.13,ND
2016/11/09,15:40,0.87,0.12,ND
2016/11/09,15:50,0.87,0.13,ND
2016/11/09,16:00,0.89,0.12,ND
2016/11/09,16:10,0.90,0.12,ND
2016/11/09,16:20,0.89,0.12,ND
2016/11/09,16:30,0.88,0.11,ND
2016/11/09,16:40,0.87,0.11,ND
2016/11/09,16:50,0.89,0.10,ND
2016/11/09,17:00,0.87,0.10,ND
2016/11/09,17:10,0.88,0.11,ND
2016/11/09,17:20,0.89,0.11,ND
2016/11/09,17:30,0.90,0.11,ND
2016/11/09,17:40,0.93,0.12,ND
2016/11/09,17:50,0.92,0.13,ND
2016/11/09,18:00,0.90,0.12,ND
2016/11/09,18:10,0.88,0.13,ND
2016/11/09,18:20,0.84,0.14,ND
2016/11/09,18:30,0.83,0.12,ND
2016/11/09,18:40,0.82,0.12,ND
2016/11/09,18:50,0.82,0.11,ND
2016/11/09,19:00,0.74,0.096,ND
2016/11/09,19:10,0.80,0.079,ND
2016/11/09,19:20,0.80,0.071,ND
2016/11/09,19:30,0.80,0.079,ND
2016/11/09,19:40,0.79,0.087,ND
2016/11/09,19:50,0.76,0.089,ND
2016/11/09,20:00,0.73,0.095,ND
2016/11/09,20:10,0.74,0.092,ND
2016/11/09,20:20,0.76,0.087,ND
2016/11/09,20:30,0.76,0.089,ND
2016/11/09,20:40,0.75,0.081,ND
2016/11/09,20:50,0.75,0.071,ND
2016/11/09,21:00,0.78,0.075,ND
2016/11/09,21:10,0.76,0.077,ND
2016/11/09,21:20,0.78,0.077,ND
2016/11/09,21:30,0.81,0.084,ND
2016/11/09,21:40,0.78,0.087,ND
2016/11/09,21:50,0.78,0.091,ND
2016/11/09,22:00,0.75,0.096,ND
2016/11/09,22:10,0.76,0.10,ND
2016/11/09,22:20,0.76,0.10,ND
2016/11/09,22:30,0.77,0.092,ND
2016/11/09,22:40,0.79,0.092,ND
2016/11/09,22:50,0.79,0.095,11
2016/11/09,23:00,0.79,0.088,9.7
2016/11/09,23:10,0.81,0.079,ND
2016/11/09,23:20,0.82,0.081,ND
2016/11/09,23:30,0.82,0.076,ND
2016/11/09,23:40,0.80,0.087,ND
2016/11/09,23:50,0.85,0.075,ND
